Location: Croydon
(51.3762°N, 0.0982°W)
Time: 18:55:30
(UTC+00:00)

Altair - Pass Details

Date: 20 November 2019
Orbit: 1502 x 1682 km, 47.2° (Epoch: 07 December)

Event Time Altitude Azimuth Distance (km) Brightness Sun altitude
Rises 01:32:07 0° 199° (SSW) 4,651 - -52.0°
Reaches altitude 10° 01:35:47 10° 188° (S) 3,658 - -51.6°
Maximum altitude 01:42:52 26° 136° (SE) 2,615 - -50.8°
Exits shadow 01:46:47 19° 102° (ESE) 2,977 9.1 -50.4°
Drops below altitude 10° 01:49:58 10° 85° (E) 3,664 9.8 -50.0°
Sets 01:53:37 0° 73° (ENE) 4,661 10.6 -49.6°
